Tracking 25723 objects as of 27-Jun-2022
HD Live streaming from Space Station
objects crossing your sky now

DELTA 1 DEB

Track DELTA 1 DEB now!
10-day predictions


NORAD ID: 12246
Int'l Code: 1978-026CP
Perigee: 850.3 km
Apogee: 932.9 km
Inclination: 99.3 °
Period: 102.7 minutes
Semi major axis: 7262 km
RCS: 0.186 m2 (medium)
Launch date: March 5, 1978
Source: United States (US)
Launch site: AIR FORCE WESTERN TEST RANGE (AFWTR)

Note: This is SATELLITE DEBRIS
aabbcc
Your satellite tracking list
Your tracking list is empty




NASA's NSSDC Master Catalog

Two Line Element Set (TLE):
1 12246U 78026CP  22177.84235134  .00000174  00000-0  14046-3 0  9997
2 12246  99.2547  32.2416 0056901  28.7412  35.6910 14.02696662114402
Source of the keplerian elements: AFSPC